IST,Max TemperatureF,Mean TemperatureF,Min TemperatureF,Max Dew PointF,MeanDew PointF,Min DewpointF,Max Humidity, Mean Humidity, Min Humidity, Max Sea Level PressureIn, Mean Sea Level PressureIn, Min Sea Level PressureIn, Max VisibilityMiles, Mean VisibilityMiles, Min VisibilityMiles, Max Wind SpeedMPH, Mean Wind SpeedMPH, Max Gust SpeedMPH,PrecipitationIn, CloudCover, Events, WindDirDegrees
2012-9-1,89,82,74,70,66,63,78,60,35,29.86,29.82,29.80,6,6,6,12,5,,0.00,2,,230
2012-9-2,88,80,72,70,66,63,69,59,40,29.86,29.84,29.80,6,6,6,12,4,,0.00,3,,226
2012-9-3,90,83,76,71,68,64,74,60,40,29.83,29.78,29.74,6,6,6,12,5,,0.00,2,,217
2012-9-4,92,84,76,73,71,66,74,64,46,29.78,29.75,29.71,6,6,6,13,5,,0.00,2,,292
2012-9-5,93,84,76,73,70,66,79,62,32,29.82,29.79,29.77,6,6,6,13,5,,0.00,1,,356
2012-9-6,91,84,76,72,69,66,78,62,36,29.84,29.81,29.80,6,6,6,13,5,,0.00,2,,319
2012-9-7,89,82,75,70,68,64,74,63,42,29.84,29.80,29.77,6,6,6,13,5,,0.00,2,,199
2012-9-8,91,82,74,70,66,59,78,60,32,29.78,29.75,29.71,6,6,6,13,5,,0.00,2,,227
2012-9-9,89,82,75,70,66,64,69,60,46,29.77,29.75,29.74,6,6,6,16,7,,0.00,3,,214
2012-9-10,89,81,73,70,68,66,73,63,45,29.83,29.79,29.77,6,6,6,12,5,,0.00,2,,225
2012-9-11,89,82,75,70,69,68,74,64,46,29.86,29.82,29.80,6,6,6,12,6,,0.00,2,,226
2012-9-12,89,82,74,68,67,63,78,61,40,29.86,29.84,29.80,6,6,6,12,6,,0.00,3,,224
2012-9-13,87,80,73,66,64,61,73,56,36,29.92,29.86,29.83,6,6,6,13,4,,0.00,2,,253
2012-9-14,86,79,72,64,62,61,69,55,38,29.95,29.90,29.86,6,6,6,12,5,,0.00,2,,315
2012-9-15,89,80,70,68,65,61,73,58,40,29.89,29.81,29.74,6,6,6,13,4,,0.00,3,,341
2012-9-16,92,82,72,70,67,63,73,61,40,29.82,29.78,29.74,6,6,6,12,3,,0.00,1,,348
2012-9-17,88,80,73,70,66,61,78,61,42,29.90,29.84,29.80,6,6,6,13,5,,0.00,2,,5
2012-9-18,89,80,71,70,66,55,74,62,49,29.89,29.86,29.83,6,6,6,13,4,20,0.00,1,,354
2012-9-19,89,80,72,72,68,64,78,65,44,29.89,29.86,29.83,6,6,6,13,4,,0.00,2,,331
2012-9-20,89,80,72,68,65,59,74,59,31,29.92,29.88,29.86,6,6,6,13,4,,0.00,2,,331
2012-9-21,87,80,72,66,64,63,73,58,40,29.93,29.91,29.88,6,6,6,13,4,,0.00,2,,323
2012-9-22,87,79,71,66,63,61,73,57,35,29.95,29.92,29.89,6,6,6,12,5,,0.00,3,,10
2012-9-23,84,78,71,64,62,59,73,58,35,29.99,29.94,29.89,6,6,6,10,4,,0.00,3,,343
2012-9-24,86,78,70,64,62,59,69,58,39,29.93,29.88,29.83,6,6,6,13,5,,0.00,4,,37
2012-9-25,86,78,70,64,63,61,73,57,37,29.88,29.85,29.83,6,6,6,12,4,,0.00,4,,334
2012-9-26,86,78,69,66,64,61,69,56,40,29.94,29.91,29.88,6,6,6,10,5,,0.00,2,,306
2012-9-27,90,80,69,72,65,59,74,60,35,29.92,29.90,29.86,12,8,6,13,4,,0.00,,,3
2012-9-28,88,80,72,73,70,64,83,68,52,29.93,29.90,29.86,6,6,6,12,4,,0.00,4,,340
2012-9-29,88,82,75,72,71,68,78,69,50,29.95,29.92,29.86,6,6,5,13,5,,0.00,3,,349
2012-9-30,91,84,77,75,73,64,83,72,48,30.04,29.94,29.89,6,6,5,13,6,24,0.00,5,,342